This is the latest recevied weather packets stored in our database for station/object VR2MW-X. If no packets are shown the sender has not sent any weather packets the latest 10 day(s).
| Time | Temp. | Humidity | Pressure | Rain* | Wind** | Luminosity | Snow |
|---|---|---|---|---|---|---|---|
| 1777706498 | 27.22° C | 77% | 1010 hPa | - | - | - | - |
| 1777705888 | 27.22° C | 74% | 1010.1 hPa | - | - | - | - |
| 1777705277 | 27.22° C | 74% | 1010.1 hPa | - | - | - | - |
| 1777704666 | 27.22° C | 73% | 1010.3 hPa | - | - | - | - |
| 1777704056 | 27.22° C | 73% | 1010.6 hPa | - | - | - | - |
| 1777703445 | 27.78° C | 72% | 1010.7 hPa | - | - | - | - |
| 1777702835 | 27.78° C | 73% | 1010.8 hPa | - | - | - | - |
| 1777702222 | 27.78° C | 75% | 1011 hPa | - | - | - | - |
| 1777701612 | 27.22° C | 74% | 1011.1 hPa | - | - | - | - |
| 1777701000 | 27.78° C | 71% | 1011.2 hPa | - | - | - | - |
| 1777700390 | 27.78° C | 72% | 1011.6 hPa | - | - | - | - |
| 1777699779 | 27.78° C | 71% | 1011.7 hPa | - | - | - | - |
| 1777699169 | 27.78° C | 71% | 1012 hPa | - | - | - | - |
| 1777698558 | 27.22° C | 73% | 1012.1 hPa | - | - | - | - |
| 1777697948 | 27.22° C | 73% | 1012.3 hPa | - | - | - | - |
| 1777697337 | 27.22° C | 71% | 1012.5 hPa | - | - | - | - |
| 1777696727 | 27.22° C | 74% | 1012.5 hPa | - | - | - | - |
| 1777696117 | 26.11° C | 77% | 1012.5 hPa | - | - | - | - |
| 1777695505 | 26.11° C | 78% | 1012.5 hPa | - | - | - | - |
| 1777694895 | 26.11° C | 76% | 1012.5 hPa | - | - | - | - |
| 1777694284 | 27.22° C | 77% | 1012.6 hPa | - | - | - | - |
| 1777693673 | 26.11° C | 78% | 1012.6 hPa | - | - | - | - |
| 1777693063 | 26.11° C | 77% | 1012.7 hPa | - | - | - | - |
| 1777692451 | 26.11° C | 76% | 1012.8 hPa | - | - | - | - |
| 1777691840 | 26.11° C | 76% | 1013.1 hPa | - | - | - | - |
* Rain since midnight (hover to see other rain measurements)
** Current wind speed in m/s (hover to see current wind gust speed)